Greenville/Spartanburg, SC

6:02 PM EDT on August 21, 2017 (GMT -0400)
Greenville-Spartanburg International

Weather History for KGSP - April, 2012

Change the Weather History Date:

Friday, April 6, 2012

  Actual Average Record
Temperature  
Mean Temperature 56 °F 58 °F  
Max Temperature 65 °F 71 °F 88 °F (2010)
Min Temperature 47 °F 46 °F 26 °F (1904)
Degree Days  
Heating Degree Days 9 8  
Month to date heating degree days 9 49  
Since 1 July heating degree days 2269 2882  
Cooling Degree Days 0 1  
Month to date cooling degree days 18 6  
Year to date cooling degree days 84 14  
Growing Degree Days 5 (Base 50)    
Moisture  
Dew Point 43 °F    
Average Humidity 67    
Maximum Humidity 93    
Minimum Humidity 40    
Precipitation  
Precipitation 0.21 in 0.11 in 2.51 in (1936)
Month to date precipitation 0.98 0.70  
Year to date precipitation 9.59 13.01  
Snow  
Snow 0.00 in 0.00 in T in (2007)
Month to date snowfall 0.0 0.0  
Since 1 July snowfall T 4.7  
Snow Depth 0.00 in    
Sea Level Pressure  
Sea Level Pressure 29.90 in    
Wind  
Wind Speed 8 mph (NE)    
Max Wind Speed 18 mph    
Max Gust Speed 26 mph    
Visibility 9 miles    
Events Rain    
T = Trace of Precipitation, MM = Missing Value Source: NWS Daily Summary

Daily Weather History Graph

Daily Weather History Graph

Search for Another Location

Airport or City:

Trip Planner

Search our weather history database for the weather conditions in past years. The results will help you decide how hot, cold, wet, or windy it might be!

Date:

Astronomy

Apr. 06, 2012 Rise Set
Actual Time 7:08 AM EDT 7:54 PM EDT
Civil Twilight 6:42 AM EDT 8:20 PM EDT
Nautical Twilight 6:12 AM EDT 8:50 PM EDT
Astronomical Twilight 5:41 AM EDT 9:21 PM EDT
Moon 8:09 PM EDT (4/6) 6:40 AM EDT (4/6)
Length of Visible Light 13h 37m
Length of Day
12h 46m
Full, 100% of the Moon is Illuminated
Apr 6
Full
Apr 6
Full
Apr 13
Last Quarter
Apr 21
New
Apr 29
First Quarter

Hourly Weather History & Observations

Time (EDT) Temp. Dew Point Humidity Pressure Visibility Wind Dir Wind Speed Gust Speed Precip Events Conditions
12:53 AM 52.0 °F 50.0 °F 93% 29.75 in 10.0 mi NNE 10.4 mph - 0.00 in Rain Light Rain
1:53 AM 51.1 °F 48.9 °F 92% 29.76 in 10.0 mi NNE 13.8 mph 20.7 mph 0.00 in   Overcast
2:53 AM 50.0 °F 48.0 °F 93% 29.77 in 10.0 mi NNE 12.7 mph - 0.00 in Rain Light Rain
3:35 AM 50.0 °F 46.4 °F 87% 29.80 in 9.0 mi NNE 11.5 mph - 0.03 in Rain Light Rain
3:44 AM 48.2 °F 46.4 °F 93% 29.80 in 10.0 mi NNE 9.2 mph - 0.03 in Rain Light Rain
3:53 AM 48.9 °F 46.9 °F 93% 29.78 in 10.0 mi NE 9.2 mph - 0.03 in Rain Light Rain
4:24 AM 48.2 °F 46.4 °F 93% 29.81 in 10.0 mi NE 4.6 mph - 0.00 in Rain Light Rain
4:48 AM 48.2 °F 46.4 °F 93% 29.81 in 7.0 mi NE 9.2 mph - 0.01 in Rain Light Rain
4:53 AM 48.9 °F 46.9 °F 93% 29.79 in 6.0 mi NE 9.2 mph - 0.01 in Rain Rain
5:25 AM 48.2 °F 46.4 °F 93% 29.81 in 6.0 mi NE 9.2 mph - 0.05 in Rain Rain
5:38 AM 48.2 °F 46.4 °F 93% 29.82 in 6.0 mi NE 10.4 mph - 0.07 in Rain Rain
5:53 AM 48.0 °F 46.0 °F 93% 29.81 in 8.0 mi ENE 11.5 mph - 0.09 in Rain Light Rain
6:53 AM 46.9 °F 45.0 °F 93% 29.83 in 10.0 mi NE 11.5 mph 20.7 mph 0.08 in Rain Light Rain
7:53 AM 46.9 °F 45.0 °F 93% 29.87 in 10.0 mi NE 11.5 mph - 0.00 in   Mostly Cloudy
8:53 AM 48.0 °F 42.1 °F 80% 29.91 in 10.0 mi NNE 15.0 mph 21.9 mph N/A   Overcast
9:53 AM 48.0 °F 39.9 °F 74% 29.94 in 10.0 mi NE 16.1 mph - N/A   Overcast
10:53 AM 50.0 °F 39.2 °F 66% 29.98 in 10.0 mi NE 9.2 mph - N/A   Overcast
11:53 AM 53.1 °F 37.9 °F 57% 29.98 in 10.0 mi NE 10.4 mph 20.7 mph N/A   Overcast
12:53 PM 57.0 °F 37.0 °F 47% 29.98 in 10.0 mi NE 12.7 mph 17.3 mph N/A   Mostly Cloudy
1:53 PM 59.0 °F 37.9 °F 46% 29.97 in 10.0 mi NE 11.5 mph 16.1 mph N/A   Clear
2:53 PM 61.0 °F 39.9 °F 46% 29.96 in 10.0 mi Variable 5.8 mph - N/A   Clear
3:53 PM 63.0 °F 39.0 °F 41% 29.96 in 10.0 mi ENE 8.1 mph - N/A   Clear
4:53 PM 64.0 °F 39.0 °F 40% 29.96 in 10.0 mi ESE 8.1 mph - N/A   Clear
5:53 PM 63.0 °F 39.0 °F 41% 29.96 in 10.0 mi East 6.9 mph - N/A   Clear
6:53 PM 63.0 °F 41.0 °F 45% 29.98 in 10.0 mi East 5.8 mph - N/A   Clear
7:53 PM 57.9 °F 41.0 °F 53% 30.00 in 10.0 mi Calm Calm - N/A   Clear
8:53 PM 55.9 °F 42.1 °F 60% 30.02 in 10.0 mi Calm Calm - N/A   Scattered Clouds
9:53 PM 50.0 °F 44.1 °F 80% 30.05 in 10.0 mi WSW 3.5 mph - N/A   Clear
10:53 PM 51.1 °F 44.1 °F 77% 30.06 in 10.0 mi Calm Calm - N/A   Clear
11:53 PM 50.0 °F 45.0 °F 83% 30.08 in 10.0 mi Calm Calm - N/A   Clear